Rogers, AR

6:50 AM CDT on July 26, 2017 (GMT -0500)
Rogers Municipal-Carter

Weather History for KROG - January, 2013

Change the Weather History Date:

Thursday, January 31, 2013

  Actual Average Record
Temperature  
Mean Temperature 32 °F -  
Max Temperature 46 °F 44 °F 68 °F (2017)
Min Temperature 18 °F 27 °F 10 °F (2000)
Degree Days  
Heating Degree Days 32    
Moisture  
Dew Point 21 °F    
Average Humidity 72    
Maximum Humidity 88    
Minimum Humidity 47    
Precipitation  
Precipitation 0.00 in - - ()
Sea Level Pressure  
Sea Level Pressure 30.22 in    
Wind  
Wind Speed 8 mph (WNW)    
Max Wind Speed 16 mph    
Max Gust Speed 24 mph    
Visibility 10 miles    
Events      
Averages and records for this station are not official NWS values.
T = Trace of Precipitation, MM = Missing Value Source: NWS Daily Summary

Daily Weather History Graph

Daily Weather History Graph

Search for Another Location

Airport or City:

Trip Planner

Search our weather history database for the weather conditions in past years. The results will help you decide how hot, cold, wet, or windy it might be!

Date:

Astronomy

Jan. 31, 2013 Rise Set
Actual Time 7:18 AM CST 5:42 PM CST
Civil Twilight 6:51 AM CST 6:09 PM CST
Nautical Twilight 6:20 AM CST 6:39 PM CST
Astronomical Twilight 5:50 AM CST 7:10 PM CST
Moon 10:34 PM CST (1/31) 9:27 AM CST (1/31)
Length of Visible Light 11h 17m
Length of Day
10h 23m
Waning Gibbous, 79% of the Moon is Illuminated
Jan 31
Waning Gibbous
Feb 3
Last Quarter
Feb 10
New
Feb 17
First Quarter
Feb 25
Full

Hourly Weather History & Observations

Time (CST) Temp. Windchill Dew Point Humidity Pressure Visibility Wind Dir Wind Speed Gust Speed Precip Events Conditions
12:57 AM 23.0 °F 18.4 °F 19.9 °F 88% 30.07 in 10.0 mi SSW 3.5 mph - N/A   Clear
1:57 AM 23.0 °F 14.7 °F 19.9 °F 88% 30.08 in 10.0 mi SSW 6.9 mph - N/A   Clear
3:57 AM 23.0 °F 15.8 °F 19.9 °F 88% 30.06 in 10.0 mi SSW 5.8 mph - N/A   Clear
4:57 AM 23.0 °F 15.8 °F 19.9 °F 88% 30.05 in 10.0 mi South 5.8 mph - N/A   Clear
5:57 AM 23.0 °F 14.7 °F 19.9 °F 88% 30.05 in 10.0 mi South 6.9 mph - N/A   Clear
6:57 AM 27.0 °F 17.3 °F 21.9 °F 81% 30.06 in 10.0 mi SSW 10.4 mph - N/A   Clear
7:57 AM 30.0 °F 19.5 °F 23.0 °F 75% 30.06 in 10.0 mi SSW 13.8 mph - N/A   Clear
8:57 AM 34.0 °F 25.5 °F 23.0 °F 64% 30.09 in 10.0 mi SSW 11.5 mph - N/A   Clear
9:57 AM 37.9 °F 32.1 °F 25.0 °F 60% 30.12 in 10.0 mi West 8.1 mph - N/A   Clear
10:57 AM 43.0 °F 36.4 °F 25.0 °F 49% 30.14 in 10.0 mi West 12.7 mph - N/A   Mostly Cloudy
11:57 AM 44.1 °F 37.4 °F 26.1 °F 49% 30.14 in 10.0 mi West 13.8 mph - N/A   Partly Cloudy
12:57 PM 46.0 °F 39.3 °F 27.0 °F 47% 30.13 in 10.0 mi WNW 16.1 mph - N/A   Clear
1:57 PM 43.0 °F 36.0 °F 26.1 °F 51% 30.15 in 10.0 mi NNW 13.8 mph 24.2 mph N/A   Partly Cloudy
2:57 PM 41.0 °F 33.5 °F 25.0 °F 53% 30.18 in 10.0 mi NW 13.8 mph - N/A   Mostly Cloudy
4:57 PM 30.0 °F 20.0 °F 24.1 °F 79% 30.29 in 10.0 mi NNW 12.7 mph 19.6 mph N/A   Overcast
5:01 PM 30.2 °F 23.4 °F 24.8 °F 80% 30.25 in 9.0 mi North 6.9 mph 17.3 mph N/A   Overcast
5:57 PM 28.0 °F 18.1 °F 23.0 °F 81% 30.32 in 10.0 mi NNW 11.5 mph - 0.00 in   Overcast
6:02 PM 28.4 °F 18.5 °F 21.2 °F 74% 30.28 in 10.0 mi NNW 11.5 mph - N/A   Overcast
6:40 PM 26.6 °F 18.2 °F 21.2 °F 80% 30.30 in 10.0 mi NW 8.1 mph - N/A   Overcast
6:57 PM 27.0 °F 18.0 °F 21.9 °F 81% 30.36 in 10.0 mi NW 9.2 mph - N/A   Overcast
7:37 PM 24.8 °F 15.3 °F 17.6 °F 74% 30.34 in 10.0 mi North 9.2 mph - N/A   Scattered Clouds
7:57 PM 24.1 °F 13.7 °F 16.0 °F 71% 30.40 in 10.0 mi NNW 10.4 mph - N/A   Clear
8:57 PM 21.9 °F 14.5 °F 15.1 °F 75% 30.43 in 10.0 mi North 5.8 mph - N/A   Clear
9:57 PM 21.0 °F 14.6 °F 14.0 °F 74% 30.44 in 10.0 mi North 4.6 mph - N/A   Clear
10:57 PM 19.9 °F 12.1 °F 10.9 °F 68% 30.45 in 10.0 mi NNW 5.8 mph - N/A   Clear
11:57 PM 18.0 °F 9.8 °F 10.9 °F 74% 30.45 in 10.0 mi North 5.8 mph - N/A   Clear